21:02
Airports
History
Links
Donate
Help keep this website running!
PayPal
Bitcoin
Information on this page is community maintained and may be outdated or inaccurate and is intended for reference only or PC simulator navigating!
Always use approved charts for navigating.
EPWR
STRACHOWICE
STRACHOWICE (EPWR)
Wroclaw, Dolnoslaskie, Poland (53)
(C)
Lat/Lng:51° 6' 13.98" N / 16° 52' 54.81" E
51.103882 / 16.881892
Elevation:404'ft 123mMSL
ID / ICAO:EPWR
Runways:1
Longest:(12-30) 2,494.5m 8,184ft Concrete
Controlled:Yes
Distance To
Airport ID:
Airport Radio Frequencies
Tower: 127.22
Nearby VORs <50NM
Nearby NDBs
METARUpdated 01-23-17 20:30 GMT
Altimeter: 30.27
Visibility: 5.0 statute miles
Wind: 8 knots (290°)
Temp: -5°c 23°f
Humidity: 79.4%

METAR: EPWR 232030Z 29008KT 8000 NSC M05/M08 Q1025

(Powered by phpweather)
Runway 12 / 30
Dimensions:2494.5 x 60.1m 8184' x 197'ft
Surface:Concrete
Edge Lights:Medium intensity
Runway 12 [A]Runway 30 [B]
Heading:116°TH 296°TH
Lat:
Lng:
51° 6' 31.69"N
16° 51' 56.97"E
51° 5' 56.26"N
16° 53' 52.65"E
ALS:SALSCalvert
Google Map
Nearby Airports
(U) LEGNICA 31.0 NM
EPLE W 280°
(U) LUBIN 36.9 NM
EPLU NW 306°
(C) Broumov 44.2 NM
LKBR SSW 212°
(C) Velke Porici 53.0 NM
LKVP SSW 213°
(C) Mikulovice 58.3 NM
LKMI SSE 161°
(C) Nove Mesto 61.2 NM
LKNM SSW 213°
(C) Vrchlabi 63.3 NM
LKVR WSW 238°
VFR Chart
Flight Planning at SkyVector.com